DLH12V EHAM-EDDL

Flight info

Callsign DLH12V
Flight time N/A
Altitude 17000
Route ARNEM T196 TEBRO P62 PISAP PISAP1A
Aircraft A339/H-SADE1E2E3GHIJ3J5M1P2RWXY/LB2D1

Departure

Time 2026-05-05 18:46
Airport Amsterdam Airport Schiphol (EHAM)

Arrival

Time N/A
Airport Düsseldorf Airport (EDDL)
Time Latitude Longitude Altitude Speed Heading
2026-05-05 18:14 52.30513 4.76264 7 ft 0 kts 237°
2026-05-05 18:28 52.30512 4.76263 7 ft 1 kts 239°
2026-05-05 18:28 52.30515 4.76274 7 ft 1 kts 236°
2026-05-05 18:29 52.30521 4.76286 8 ft 2 kts 242°
2026-05-05 18:29 52.30527 4.76307 8 ft 2 kts 249°
2026-05-05 18:29 52.30532 4.76327 9 ft 1 kts 237°
2026-05-05 18:29 52.30535 4.76338 9 ft 1 kts 225°
2026-05-05 18:30 52.30543 4.76352 9 ft 2 kts 207°
2026-05-05 18:30 52.30548 4.76359 8 ft 2 kts 191°
2026-05-05 18:30 52.30536 4.76358 8 ft 1 kts 183°
2026-05-05 18:30 52.30526 4.76367 8 ft 1 kts 156°
2026-05-05 18:31 52.30524 4.76368 10 ft 0 kts 152°
2026-05-05 18:36 52.30513 4.76377 9 ft 4 kts 153°
2026-05-05 18:36 52.30478 4.76405 9 ft 7 kts 154°
2026-05-05 18:36 52.30426 4.76451 12 ft 10 kts 149°
2026-05-05 18:36 52.30362 4.76510 16 ft 11 kts 157°
2026-05-05 18:37 52.30290 4.76488 20 ft 12 kts 218°
2026-05-05 18:37 52.30229 4.76355 19 ft 18 kts 236°
2026-05-05 18:37 52.30155 4.76160 18 ft 23 kts 240°
2026-05-05 18:37 52.30059 4.75909 16 ft 28 kts 236°
2026-05-05 18:38 52.29988 4.75735 16 ft 14 kts 239°
2026-05-05 18:38 52.29940 4.75600 18 ft 14 kts 239°
2026-05-05 18:38 52.29889 4.75458 19 ft 15 kts 238°
2026-05-05 18:38 52.29839 4.75305 20 ft 16 kts 253°
2026-05-05 18:39 52.29877 4.75129 13 ft 20 kts 308°
2026-05-05 18:39 52.29978 4.74943 11 ft 21 kts 311°
2026-05-05 18:39 52.30079 4.74752 13 ft 21 kts 310°
2026-05-05 18:39 52.30123 4.74669 18 ft 0 kts 311°
2026-05-05 18:40 52.30124 4.74668 18 ft 2 kts 311°
2026-05-05 18:40 52.30154 4.74610 11 ft 16 kts 310°
2026-05-05 18:40 52.30215 4.74487 20 ft 18 kts 313°
2026-05-05 18:41 52.30284 4.74369 23 ft 0 kts 313°
2026-05-05 18:41 52.30300 4.74341 21 ft 0 kts 313°
2026-05-05 18:41 52.30339 4.74266 20 ft 16 kts 305°
2026-05-05 18:41 52.30329 4.74085 24 ft 10 kts 245°
2026-05-05 18:42 52.30297 4.74022 26 ft 0 kts 226°
2026-05-05 18:43 52.30296 4.74021 26 ft 2 kts 226°
2026-05-05 18:43 52.30243 4.73945 23 ft 18 kts 219°
2026-05-05 18:44 52.30201 4.73754 24 ft 14 kts 304°
2026-05-05 18:44 52.30292 4.73735 18 ft 14 kts
2026-05-05 18:44 52.30392 4.73748 19 ft 14 kts
2026-05-05 18:44 52.30479 4.73759 21 ft 12 kts
2026-05-05 18:45 52.30570 4.73768 19 ft 13 kts
2026-05-05 18:45 52.30661 4.73771 21 ft 13 kts
2026-05-05 18:45 52.30735 4.73774 24 ft 2 kts
2026-05-05 18:45 52.30960 4.73787 27 ft 78 kts
2026-05-05 18:46 52.31779 4.73872 23 ft 151 kts
2026-05-05 18:46 52.32942 4.73945 540 ft 169 kts
2026-05-05 18:46 52.34124 4.73927 1360 ft 167 kts
2026-05-05 18:46 52.34932 4.74148 1849 ft 168 kts 23°
2026-05-05 18:47 52.36275 4.75492 2398 ft 182 kts 34°
2026-05-05 18:47 52.37289 4.76632 2218 ft 177 kts 35°
2026-05-05 18:47 52.38289 4.77893 2065 ft 185 kts 41°
2026-05-05 18:47 52.39223 4.79475 2283 ft 196 kts 45°
2026-05-05 18:48 52.39865 4.80545 2700 ft 200 kts 45°
2026-05-05 18:48 52.40843 4.82148 3659 ft 199 kts 44°
2026-05-05 18:48 52.41810 4.83799 4465 ft 205 kts 50°
2026-05-05 18:48 52.42445 4.86787 5455 ft 220 kts 86°
2026-05-05 18:49 52.42433 4.88505 5793 ft 227 kts 87°
2026-05-05 18:49 52.42396 4.91094 5969 ft 228 kts 88°
2026-05-05 18:49 52.42371 4.93683 5996 ft 228 kts 86°
2026-05-05 18:49 52.42371 4.96334 6079 ft 232 kts 88°
2026-05-05 18:50 52.42050 4.98948 6352 ft 236 kts 116°
2026-05-05 18:50 52.40982 5.00991 6854 ft 242 kts 142°
2026-05-05 18:50 52.39565 5.02547 7714 ft 239 kts 148°
2026-05-05 18:50 52.38141 5.03995 8477 ft 243 kts 148°
2026-05-05 18:51 52.36713 5.05500 9249 ft 247 kts 147°
2026-05-05 18:51 52.35279 5.07085 9949 ft 249 kts 146°
2026-05-05 18:51 52.33902 5.08782 10494 ft 254 kts 136°
2026-05-05 18:51 52.32891 5.11135 10757 ft 255 kts 113°